1272672025483,17.3510
1272672085483,17.3518
1272672145483,17.4376
1272672205483,17.3768
1272672265483,17.3723
1272672325483,17.4202
1272672385483,17.3769
1272672445483,17.3240
1272672505483,17.3905
1272672565483,17.2986
1272672625483,17.3151
1272672685483,17.3312
1272672745483,17.3164
1272672805483,17.3287
1272672865483,17.3168
1272672925483,17.2924
1272672985483,17.2762
1272673045483,17.2756
1272673105483,17.2694
1272673165483,17.2394
1272673225483,17.2944
1272673285483,17.2761
1272673345483,17.2545
1272673405483,17.2453
1272673465483,17.2170
1272673525483,17.2158
1272673585483,17.2562
1272673645483,17.2719
1272673705483,17.2658
1272673765483,17.3623
1272673825483,17.2745
1272673885483,17.2275
1272673945483,17.2158
1272674005483,17.2558
1272674065483,17.1871
1272674125483,17.1838
1272674185483,17.2769
1272674245483,17.2390
1272674305483,17.2462
1272674365483,17.2379
1272674425483,17.1564
1272674485483,17.2478
1272674545483,17.2522
1272674605483,17.2787
1272674665483,17.2623
1272674725483,17.1743
1272674785483,17.2465
1272674845483,17.2932
1272674905483,17.1987
1272674965483,17.2689
1272675025483,17.2037
1272675085483,17.2487
1272675145483,17.2387
1272675205483,17.2542
1272675265483,17.2017
1272675325483,17.1985
1272675385483,17.2693
1272675445483,17.2202
1272675505483,17.1639
1272675565483,17.2257
1272675625493,17.1213
1272675685493,17.1549
1272675745493,17.1471
1272675805493,17.1973
1272675865493,17.1522
1272675925493,17.1581
1272675985493,17.2088
1272676045493,17.2587
1272676105493,17.2185
1272676165493,17.1745
1272676225493,17.1572
1272676285493,17.1341
1272676345493,17.2421
1272676405493,17.1368
1272676465493,17.1710
1272676525493,17.1982
1272676585493,17.2737
1272676645493,17.2181
1272676705493,17.2725
1272676765493,17.1847
1272676825493,17.1487
1272676885493,17.2517
1272676945493,17.2684
1272677005493,17.2433
1272677065493,17.2086
1272677125493,17.2724
1272677185493,17.1975
1272677245493,17.2943
1272677305493,17.2438
1272677365493,17.2546
1272677425493,17.2591
1272677485493,17.2556
1272677545493,17.2787
1272677605493,17.3169
1272677665493,17.3076
1272677725493,17.3430
1272677785493,17.4611
1272677845493,17.6930
1272677905493,17.7312
1272677965493,17.5096
1272678025493,17.4505
1272678085493,17.5243
1272678145493,17.5090
1272678205493,17.5478
1272678265493,17.5282
1272678325493,17.5561
1272678385493,17.5886
1272678445493,17.5677
1272678505493,17.4805
1272678565493,17.5016
1272678625493,17.4273
1272678685493,17.4128
1272678745493,17.3687
1272678805493,17.3532
1272678865493,17.3563
1272678925493,17.2828
1272678985493,17.3503
1272679045493,17.3289
1272679105493,17.3996
1272679165493,17.3412
1272679225503,17.2960
1272679285503,17.3137
1272679345503,17.2715
1272679405503,17.3515
1272679465503,17.3805
1272679525503,17.3460
1272679585503,17.4141
1272679645503,17.3203
1272679705503,17.2924
1272679765503,17.3560
1272679825503,17.2817
1272679885503,17.3158
1272679945503,17.2969
1272680005503,17.2822
1272680065503,17.2580
1272680125503,17.2533
1272680185503,17.2822
1272680245503,17.3504
1272680305503,17.3307
1272680365503,17.3437
1272680425503,17.2616
1272680485503,17.2410
1272680545503,17.2373
1272680605503,17.3500
1272680665503,17.2562
1272680725503,17.2676
1272680785503,17.2702
1272680845503,17.2540
1272680905503,17.3127
1272680965503,17.3213
1272681025503,17.3456
1272681085503,17.3792
1272681145503,17.3931
1272681205503,17.3859
1272681265503,17.3732
1272681325503,17.3325
1272681385503,17.3437
1272681445503,17.3936
1272681505503,17.3255
1272681565503,17.3405
1272681625503,17.3256
1272681685503,17.3494
1272681745503,17.4206
1272681805503,17.3074
1272681865503,17.3280
1272681925503,17.3923
1272681985503,17.3823
1272682045503,17.4260
1272682105503,17.3835
1272682165503,17.3482
1272682225503,17.3744
1272682285503,17.3715
1272682345503,17.3605
1272682405503,17.3507
1272682465503,17.3387
1272682525503,17.3666
1272682585503,17.4043
1272682645503,17.3438
1272682705503,17.3892
1272682765503,17.2841
1272682825512,17.3669
1272682885512,17.3853
1272682945512,17.3704
1272683005512,17.3204
1272683065512,17.3815
1272683125512,17.3841
1272683185512,17.3571
1272683245512,17.3830
1272683305512,17.3382
1272683365512,17.3414
1272683425512,17.3418
1272683485512,17.4315
1272683545512,17.3710
1272683605512,17.3385
1272683665512,17.4262
1272683725512,17.3561
1272683785512,17.3558
1272683845512,17.3120
1272683905512,17.3639
1272683965512,17.2688
1272684025512,17.3834
1272684085512,17.3708
1272684145512,17.3495
1272684205512,17.3898
1272684265512,17.3222
1272684325512,17.3206
1272684385512,17.2758
1272684445512,17.2946
1272684505512,17.3630
1272684565512,17.3148
1272684625512,17.3235
1272684685512,17.3499
1272684745512,17.3711
1272684805512,17.3592
1272684865512,17.3137
1272684925512,17.3387
1272684985512,17.2994
1272685045512,17.3145
1272685105512,17.3585
1272685165512,17.3959
1272685225512,17.3790
1272685285512,17.3757
1272685345512,17.3047
1272685405512,17.3094
1272685465512,17.3127
1272685525512,17.3965
1272685585512,17.3889
1272685645512,17.3192
1272685705512,17.3674
1272685765512,17.3978
1272685825512,17.2840
1272685885512,17.2851
1272685945512,17.3237
1272686005512,17.3192
1272686065512,17.3732
1272686125512,17.3200
1272686185512,17.2683
1272686245512,17.2882
1272686305512,17.3314
1272686365512,17.3468
1272686425522,17.3326
1272686485522,17.2645
1272686545522,17.3338
1272686605522,17.3316
1272686665522,17.2723
1272686725522,17.3536
1272686785522,17.2790
1272686845522,17.3260
1272686905522,17.2483
1272686965522,17.2553
1272687025522,17.2615
1272687085522,17.3061
1272687145522,17.2380
1272687205522,17.3192
1272687265522,17.2105
1272687325522,17.3018
1272687385522,17.3019
1272687445522,17.2857
1272687505522,17.2476
1272687565522,17.3169
1272687625522,17.2772
1272687685522,17.3180
1272687745522,17.2715
1272687805522,17.2368
1272687865522,17.3014
1272687925522,17.3052
1272687985522,17.2964
1272688045522,17.2473
1272688105522,17.2627
1272688165522,17.2647
1272688225522,17.3066
1272688285522,17.2312
1272688345522,17.2481
1272688405522,17.2796
1272688465522,17.2867
1272688525522,17.3033
1272688585522,17.2939
1272688645522,17.2348
1272688705522,17.2906
1272688765522,17.2515
1272688825522,17.3217
1272688885522,17.2893
1272688945522,17.2810
1272689005522,17.2228
1272689065522,17.3303
1272689125522,17.3100
1272689185522,17.2569
1272689245522,17.2802
1272689305522,17.2674
1272689365522,17.3125
1272689425522,17.2907
1272689485522,17.2827
1272689545522,17.2483
1272689605522,17.3007
1272689665522,17.2351
1272689725522,17.2605
1272689785522,17.2583
1272689845522,17.2572
1272689905522,17.2707
1272689965522,17.3076
1272690025531,17.2905
1272690085531,17.3199
1272690145531,17.3120
1272690205531,17.3266
1272690265531,17.3510
1272690325531,17.2433
1272690385531,17.2534
1272690445531,17.2612
1272690505531,17.2638
1272690565531,17.2556
1272690625531,17.2416
1272690685531,17.2486
1272690745531,17.2485
1272690805531,17.3318
1272690865531,17.2437
1272690925531,17.3332
1272690985531,17.2245
1272691045531,17.3029
1272691105531,17.2261
1272691165531,17.2556
1272691225531,17.2123
1272691285531,17.3438
1272691345531,17.3381
1272691405531,17.2684
1272691465531,17.3117
1272691525531,17.3331
1272691585531,17.3294
1272691645531,17.2905
1272691705531,17.3136
1272691765531,17.2648
1272691825531,17.3084
1272691885531,17.2849
1272691945531,17.2699
1272692005531,17.2668
1272692065531,17.3316
1272692125531,17.3092
1272692185531,17.2722
1272692245531,17.2426
1272692305531,17.3144
1272692365531,17.3227
1272692425531,17.3335
1272692485531,17.2472
1272692545531,17.2430
1272692605531,17.3125
1272692665531,17.2647
1272692725531,17.2254
1272692785531,17.3159
1272692845531,17.2668
1272692905531,17.3113
1272692965531,17.2923
1272693025531,17.2651
1272693085531,17.3001
1272693145531,17.2377
1272693205531,17.2269
1272693265531,17.2341
1272693325531,17.2061
1272693385531,17.2031
1272693445531,17.1827
1272693505531,17.2196
1272693565531,17.2495
1272693625540,17.1831
1272693685540,17.2554
1272693745540,17.2854
1272693805540,17.2478
1272693865540,17.2643
1272693925540,17.3048
1272693985540,17.2182
1272694045540,17.2218
1272694105540,17.2729
1272694165540,17.2677
1272694225540,17.2315
1272694285540,17.2544
1272694345540,17.2407
1272694405540,17.3222
1272694465540,17.2834
1272694525540,17.3304
1272694585540,17.3169
1272694645540,17.3128
1272694705540,17.2745
1272694765540,17.3250
1272694825540,17.3850
1272694885540,17.3162
1272694945540,17.3595
1272695005540,17.3041
1272695065540,17.2952
1272695125540,17.3146
1272695185540,17.3903
1272695245540,17.3516
1272695305540,17.4013
1272695365540,17.3728
1272695425540,17.3800
1272695485540,17.3357
1272695545540,17.2906
1272695605540,17.3650
1272695665540,17.3707
1272695725540,17.3514
1272695785540,17.3045
1272695845540,17.3542
1272695905540,17.4101
1272695965540,17.4114
1272696025540,17.4032
1272696085540,17.3392
1272696145540,17.3495
1272696205540,17.3543
1272696265540,17.3550
1272696325540,17.3606
1272696385540,17.3983
1272696445540,17.3724
1272696505540,17.3586
1272696565540,17.4117
1272696625540,17.3845
1272696685540,17.4004
1272696745540,17.3611
1272696805540,17.4109
1272696865540,17.3293
1272696925540,17.3389
1272696985540,17.3666
1272697045540,17.3582
1272697105540,17.3275
1272697165540,17.3126
1272697225549,17.2936
1272697285549,17.3241
1272697345549,17.3290
1272697405549,17.2838
1272697465549,17.2313
1272697525549,17.3111
1272697585549,17.3455
1272697645549,17.3130
1272697705549,17.2618
1272697765549,17.2172
1272697825549,17.2557
1272697885549,17.2606
1272697945549,17.2264
1272698005549,17.2076
1272698065549,17.2775
1272698125549,17.2477
1272698185549,17.2925
1272698245549,17.2679
1272698305549,17.2529
1272698365549,17.2530
1272698425549,17.1771
1272698485549,17.1675
1272698545549,17.2550
1272698605549,17.2456
1272698665549,17.1968
1272698725549,17.2663
1272698785549,17.1939
1272698845549,17.2290
1272698905549,17.1646
1272698965549,17.2084
1272699025549,17.2408
1272699085549,17.2285
1272699145549,17.2102
1272699205549,17.2531
1272699265549,17.2027
1272699325549,17.2481
1272699385549,17.2308
1272699445549,17.2425
1272699505549,17.2079
1272699565549,17.2645
1272699625549,17.1878
1272699685549,17.2541
1272699745549,17.2478
1272699805549,17.2060
1272699865549,17.2221
1272699925549,17.2238
1272699985549,17.2367
1272700045549,17.2461
1272700105549,17.2501
1272700165549,17.2582
1272700225549,17.1814
1272700285549,17.1964
1272700345549,17.2560
1272700405549,17.2271
1272700465549,17.2562
1272700525549,17.1879
1272700585549,17.2616
1272700645549,17.2126
1272700705549,17.1870
1272700765549,17.2052
1272700825558,17.1959
1272700885558,17.1945
1272700945558,17.2010
1272701005558,17.2402
1272701065558,17.1833
1272701125558,17.1963
1272701185558,17.2442
1272701245558,17.2196
1272701305558,17.2468
1272701365558,17.2048
1272701425558,17.2050
1272701485558,17.2009
1272701545558,17.1909
1272701605558,17.1409
1272701665558,17.1893
1272701725558,17.1704
1272701785558,17.1602
1272701845558,17.1931
1272701905558,17.2413
1272701965558,17.1667
1272702025558,17.2015
1272702085558,17.1510
1272702145558,17.1152
1272702205558,17.0721
1272702265558,17.1491
1272702325558,17.0967
1272702385558,17.1353
1272702445558,17.1314
1272702505558,17.0785
1272702565558,17.1746
1272702625558,17.1083
1272702685558,17.1097
1272702745558,17.1231
1272702805558,17.1013
1272702865558,17.1160
1272702925558,17.1953
1272702985558,17.1474
1272703045558,17.2016
1272703105558,17.1774
1272703165558,17.1568
1272703225558,17.1489
1272703285558,17.1335
1272703345558,17.1491
1272703405558,17.1721
1272703465558,17.1204
1272703525558,17.1408
1272703585558,17.1995
1272703645558,17.1886
1272703705558,17.1567
1272703765558,17.1587
1272703825558,17.1772
1272703885558,17.1986
1272703945558,17.1940
1272704005558,17.1686
1272704065558,17.1456
1272704125558,17.2064
1272704185558,17.1513
1272704245558,17.1529
1272704305558,17.1863
1272704365558,17.1746
1272704425567,17.1728
1272704485567,17.1927
1272704545567,17.2026
1272704605567,17.1639
1272704665567,17.1792
1272704725567,17.2240
1272704785567,17.2069
1272704845567,17.1697
1272704905567,17.2125
1272704965567,17.1742
1272705025567,17.1578
1272705085567,17.1577
1272705145567,17.2062
1272705205567,17.2190
1272705265567,17.1491
1272705325567,17.1701
1272705385567,17.1718
1272705445567,17.1740
1272705505567,17.2162
1272705565567,17.2442
1272705625567,17.1149
1272705685567,17.2188
1272705745567,17.2676
1272705805567,17.1894
1272705865567,17.1048
1272705925567,17.2196
1272705985567,17.2272
1272706045567,17.1298
1272706105567,17.2602
1272706165567,17.2120
1272706225567,17.2264
1272706285567,17.2045
1272706345567,17.2593
1272706405567,17.1516
1272706465567,17.1560
1272706525567,17.1596
1272706585567,17.1838
1272706645567,17.2154
1272706705567,17.1804
1272706765567,17.1844
1272706825567,17.2410
1272706885567,17.2355
1272706945567,17.2419
1272707005567,17.2103
1272707065567,17.3031
1272707125567,17.2886
1272707185567,17.3091
1272707245567,17.3068
1272707305567,17.2964
1272707365567,17.2466
1272707425567,17.2431
1272707485567,17.2870
1272707545567,17.2954
1272707605567,17.2693
1272707665567,17.2666
1272707725567,17.2547
1272707785567,17.2587
1272707845567,17.1853
1272707905567,17.1631
1272707965567,17.2452
1272708025576,17.1942
1272708085576,17.1988
1272708145576,17.2070
1272708205576,17.1803
1272708265576,17.2052
1272708325576,17.1550
1272708385576,17.1564
1272708445576,17.1692
1272708505576,17.1417
1272708565576,17.1632
1272708625576,17.2284
1272708685576,17.2353
1272708745576,17.2114
1272708805576,17.1719
1272708865576,17.2207
1272708925576,17.2543
1272708985576,17.2088
1272709045576,17.2196
1272709105576,17.1711
1272709165576,17.2094
1272709225576,17.2407
1272709285576,17.2454
1272709345576,17.2253
1272709405576,17.2071
1272709465576,17.1862
1272709525576,17.2035
1272709585576,17.1880
1272709645576,17.2505
1272709705576,17.1650
1272709765576,17.2147
1272709825576,17.1891
1272709885576,17.2045
1272709945576,17.1711
1272710005576,17.2136
1272710065576,17.2330
1272710125576,17.2789
1272710185576,17.2436
1272710245576,17.2229
1272710305576,17.2208
1272710365576,17.1837
1272710425576,17.2202
1272710485576,17.2079
1272710545576,17.1977
1272710605576,17.2649
1272710665576,17.2642
1272710725576,17.2875
1272710785576,17.2797
1272710845576,17.2234
1272710905576,17.2584
1272710965576,17.2397
1272711025576,17.2026
1272711085576,17.2290
1272711145576,17.2419
1272711205576,17.1835
1272711265576,17.2113
1272711325576,17.2290
1272711385576,17.2505
1272711445576,17.2581
1272711505576,17.2410
1272711565576,17.2514
1272711625585,17.1967
1272711685585,17.1802
1272711745585,17.2476
1272711805585,17.1944
1272711865585,17.2102
1272711925586,17.2622
1272711985586,17.2541
1272712045586,17.2246
1272712105586,17.2451
1272712165586,17.2748
1272712225585,17.2835
1272712285586,17.2146
1272712345586,17.2352
1272712405586,17.2346
1272712465586,17.2177
1272712525586,17.2071
1272712585586,17.2209
1272712645586,17.2226
1272712705586,17.2382
1272712765586,17.2093
1272712825586,17.1789
1272712885585,17.2432
1272712945585,17.2048
1272713005585,17.1987
1272713065585,17.2025
1272713125585,17.1919
1272713185585,17.2233
1272713245585,17.1696
1272713305586,17.2062
1272713365586,17.2186
1272713425586,17.1800
1272713485586,17.1809
1272713545586,17.1614
1272713605586,17.1830
1272713665586,17.2198
1272713725586,17.2236
1272713785586,17.2290
1272713845586,17.2061
1272713905586,17.2891
1272713965586,17.2666
1272714025586,17.2074
1272714085586,17.2477
1272714145586,17.1896
1272714205586,17.2154
1272714265585,17.2256
1272714325585,17.2036
1272714385585,17.2621
1272714445585,17.2895
1272714505585,17.2325
1272714565585,17.2626
1272714625586,17.2738
1272714685586,17.2511
1272714745586,17.1865
1272714805586,17.2318
1272714865586,17.2148
1272714925585,17.2331
1272714985586,17.1918
1272715045586,17.2202
1272715105586,17.2807
1272715165586,17.2100
1272715225595,17.2488
1272715285595,17.2794
1272715345595,17.2170
1272715405595,17.3022
1272715465595,17.2466
1272715525595,17.2914
1272715585595,17.2450
1272715645595,17.2611
1272715705595,17.2351
1272715765595,17.2357
1272715825594,17.2359
1272715885594,17.2298
1272715945594,17.2657
1272716005594,17.2745
1272716065594,17.3301
1272716125594,17.2808
1272716185594,17.3322
1272716245595,17.3613
1272716305595,17.3242
1272716365595,17.2906
1272716425595,17.3002
1272716485594,17.3225
1272716545595,17.3114
1272716605595,17.2997
1272716665595,17.2928
1272716725595,17.2878
1272716785595,17.2700
1272716845595,17.2701
1272716905595,17.2511
1272716965595,17.2561
1272717025595,17.3581
1272717085595,17.2647
1272717145594,17.2895
1272717205594,17.3203
1272717265594,17.2461
1272717325594,17.2890
1272717385594,17.2937
1272717445594,17.3074
1272717505594,17.2494
1272717565595,17.3183
1272717625595,17.2768
1272717685595,17.3088
1272717745595,17.3278
1272717805595,17.2989
1272717865594,17.3286
1272717925595,17.2954
1272717985595,17.2605
1272718045595,17.2560
1272718105595,17.2868
1272718165595,17.3827
1272718225595,17.2962
1272718285595,17.2856
1272718345595,17.2670
1272718405595,17.2507
1272718465595,17.2752
1272718525594,17.2885
1272718585594,17.3367
1272718645594,17.2338
1272718705594,17.3188
1272718765594,17.2787
1272718825603,17.2792
1272718885603,17.2743
1272719425603,17.1935
1272719485603,17.3442
1272719545603,17.3063
1272719605603,17.3171
1272719665603,17.3223
1272719725603,17.2995
1272719785603,17.2935
1272719845603,17.3032
1272719905603,17.2722
1272719965603,17.2460
1272720025603,17.2401
1272720085603,17.2693
1272720145603,17.2715
1272720205603,17.3032
1272720265603,17.2787
1272720325603,17.2463
1272720385603,17.2789
1272720445603,17.2597
1272720505603,17.3452
1272720565603,17.3176
1272720625603,17.2847
1272720685603,17.3048
1272720745603,17.2895
1272720805603,17.3027
1272720865603,17.2803
1272720925603,17.2985
1272720985603,17.3422
1272721045603,17.2653
1272721105603,17.2636
1272721165603,17.2901
1272721225603,17.2886
1272721285603,17.3125
1272721345603,17.1911
1272721405603,17.2345
1272721465603,17.2901
1272721525603,17.2665
1272721585603,17.2445
1272721645603,17.2036
1272721705603,17.2226
1272721765603,17.2204
1272721825603,17.2244
1272721885603,17.2187
1272721945603,17.2495
1272722005603,17.2291
1272722065603,17.1975
1272722125603,17.2806
1272722185603,17.2481
1272722245603,17.2288
1272722305603,17.2587
1272722365603,17.2533
1272722425612,17.2806
1272722485612,17.1925
1272722545612,17.2342
1272722605612,17.2182
1272722665612,17.2171
1272722725612,17.2416
1272722785612,17.2172
1272722845612,17.1745
1272722905612,17.1860
1272722965612,17.1662
1272723025612,17.2022
1272723085612,17.2302
1272723145612,17.2100
1272723205612,17.1890
1272723265612,17.2065
1272723325612,17.2312
1272723385612,17.2927
1272723445612,17.1954
1272723505612,17.2769
1272723565612,17.2386
1272723625612,17.2281
1272723685612,17.2356
1272723745612,17.2149
1272723805612,17.2300
1272723865612,17.2711
1272723925612,17.2026
1272723985612,17.2360
1272724045612,17.2260
1272724105612,17.2470
1272724165612,17.2836
1272724225612,17.2675
1272724285612,17.2779
1272724345612,17.2328
1272724405612,17.1851
1272724465612,17.2352
1272724525612,17.2311
1272724585612,17.2456
1272724645612,17.2559
1272724705612,17.2679
1272724765612,17.2502
1272724825612,17.2521
1272724885612,17.2036
1272724945612,17.2111
1272725005612,17.2587
1272725065612,17.2013
1272725125612,17.2433
1272725185612,17.2280
1272725245612,17.2346
1272725305612,17.2649
1272725365612,17.2023
1272725425612,17.2859
1272725485612,17.2229
1272725545612,17.2286
1272725605612,17.2642
1272725665612,17.2455
1272725725612,17.2364
1272725785612,17.2545
1272725845612,17.2383
1272725905612,17.1795
1272725965612,17.2612
1272726025621,17.2611
1272726085621,17.2698
1272726145621,17.2094
1272726205621,17.2579
1272726265621,17.2309
1272726325621,17.2272
1272726385621,17.2484
1272726445621,17.2279
1272726505621,17.2687
1272726565621,17.2350
1272726625621,17.2710
1272726685621,17.2620
1272726745621,17.2193
1272726805621,17.2049
1272726865621,17.2451
1272726925621,17.2104
1272726985621,17.1869
1272727045621,17.1708
1272727105621,17.1391
1272727165621,17.2049
1272727225621,17.2291
1272727285621,17.2039
1272727345621,17.2757
1272727405621,17.2035
1272727465621,17.2440
1272727525621,17.2618
1272727585621,17.2888
1272727645621,17.2458
1272727705621,17.2582
1272727765621,17.2536
1272727825621,17.2922
1272727885621,17.3041
1272727945621,17.2660
1272728005621,17.3467
1272728065621,17.2958
1272728125621,17.3172
1272728185621,17.2604
1272728245621,17.3748
1272728305621,17.3718
1272728365621,17.3295
1272728425621,17.3288
1272728485621,17.2950
1272728545621,17.2950
1272728605621,17.2626
1272728665621,17.1922
1272728725621,17.2675
1272728785621,17.2435
1272728845621,17.2839
1272728905621,17.2373
1272728965621,17.2353
1272729025621,17.2642
1272729085621,17.2853
1272729145621,17.2913
1272729205621,17.2680
1272729265621,17.2875
1272729325621,17.2988
1272729385621,17.2495
1272729445621,17.2792
1272729505621,17.2662
1272729565621,17.2471
1272729625629,17.2422
1272729685629,17.2539
1272729745629,17.2746
1272729805629,17.2395
1272729865630,17.2929
1272729925630,17.2954
1272729985630,17.2306
1272730045629,17.1917
1272730105629,17.2311
1272730165630,17.2300
1272730225630,17.2152
1272730285630,17.2493
1272730345630,17.2454
1272730405630,17.2302
1272730465630,17.1827
1272730525630,17.3342
1272730585630,17.2868
1272730645630,17.2265
1272730705629,17.2334
1272730765629,17.2167
1272730825629,17.1721
1272730885629,17.1935
1272730945629,17.1997
1272731005629,17.1993
1272731065629,17.2597
1272731125629,17.1781
1272731185630,17.3145
1272731245630,17.1516
1272731305630,17.2403
1272731365629,17.2836
1272731425629,17.2856
1272731485629,17.2531
1272731545630,17.2935
1272731605630,17.2236
1272731665630,17.2061
1272731725630,17.2386
1272731785630,17.2131
1272731845630,17.1625
1272731905630,17.1901
1272731965630,17.2102
1272732025630,17.2220
1272732085629,17.2279
1272732145629,17.1775
1272732205629,17.1363
1272732265629,17.1562
1272732325629,17.1514
1272732385629,17.1455
1272732445629,17.1827
1272732505629,17.1704
1272732565630,17.2380
1272732625630,17.1922
1272732685630,17.2618
1272732745629,17.2286
1272732805629,17.1946
1272732865630,17.1645
1272732925630,17.2316
1272732985630,17.1990
1272733045630,17.1160
1272733105630,17.1837
1272733165630,17.2527
1272733225638,17.1693
1272733285638,17.2131
1272733345638,17.1169
1272733405638,17.1784
1272733465638,17.1751
1272733525638,17.1618
1272733585638,17.1206
1272733645638,17.1849
1272733705638,17.1548
1272733765638,17.2061
1272733825638,17.1641
1272733885638,17.2101
1272733945638,17.1024
1272734005638,17.2210
1272734065638,17.1491
1272734125638,17.2194
1272734185638,17.1802
1272734245638,17.1171
1272734305638,17.1765
1272734365638,17.2121
1272734425638,17.2586
1272734485638,17.2341
1272734545638,17.2354
1272734605638,17.1516
1272734665638,17.1929
1272734725638,17.1830
1272734785638,17.1814
1272734845638,17.1604
1272734905638,17.1128
1272734965638,17.1532
1272735025638,17.1597
1272735085638,17.2057
1272735145638,17.1447
1272735205638,17.1960
1272735265638,17.1738
1272735325638,17.2041
1272735385638,17.1560
1272735445638,17.1716
1272735505638,17.2044
1272735565638,17.2676
1272735625638,17.2028
1272735685638,17.2089
1272735745638,17.2001
1272735805638,17.1619
1272735865638,17.1796
1272735925638,17.1636
1272735985638,17.1737
1272736045638,17.2022
1272736105638,17.1493
1272736165638,17.1544
1272736225638,17.1948
1272736285638,17.1775
1272736345638,17.1369
1272736405638,17.1946
1272736465638,17.1944
1272736525638,17.1379
1272736585638,17.2068
1272736645638,17.1277
1272736705638,17.1198
1272736765638,17.1144
1272736825647,17.1394
1272736885647,17.1202
1272736945647,17.1418
1272737005647,17.1083
1272737065647,17.1394
1272737125647,17.1188
1272737185647,17.1783
1272737245647,17.2514
1272737305647,17.1498
1272737365647,17.1975
1272737425647,17.2005
1272737485647,17.2196
1272737545647,17.1355
1272737605647,17.1093
1272737665647,17.1427
1272737725647,17.0755
1272737785647,17.1274
1272737845647,17.1451